星链-30346 (STARLINK-30346 )

导读

STARLINK-30346是美国太空探索技术公司星链互联网卫星星座的一员,于2023年8月27日发射升空,归属于美国。它加入了低轨巨型卫星星座,主要服务全球卫星互联网组网,为偏远地区、地面通信盲区提供高速互联网接入服务,是星链星座部署扩张进程中发射的组网卫星,进一步完善了星链低轨星座的全球覆盖能力。

基本信息
目录编号:
57704
目录名称:
STARLINK-30346
国际标识:
2023-129G
轨道中心:
EARTH
卫星名称:
星链-30346
卫星全名:
星链-30346 (STARLINK-30346 )
卫星状态:
在轨 (已飞行1026 天)
发射日期:
2023-08-27 UTC
国别 :
美国 (US)
星等 :
--
轨道信息
数据来源 国际轨道数据
星历时间: 2026-06-17T08:00:13+0800
1天前
查看轨道信息
半长轴: 6860.92km
偏心率: 0.0001337
轨道倾角: 43.010°
近地点辐角 277.690°
升交点赤经 276.815°
平近点角 82.380°
近地点: 481.865km
远地点: 483.701km
周期: 94.261分钟
每日圈数: 15.276692
详细信息
固有亮度:
5
最大亮度:
0.3
卫星平台:
Starlink v2.0 mini
覆盖范围:
全球
运营商:
太空探索技术公司
运营商所在国:
美国
制造商(研发单位):
太空探索技术公司
制造商所在国:
美国
使用方式:
暂无
卫星简介
星链(Starlink)计划是由太空探索技术公司(SpaceX)提出的一个巨型低轨卫星互联网星座项目,计划在2019年至2024年间在太空搭建由约1.2万颗卫星组成的“星链”网络,其中1584颗将部署在地球上空550千米处的近地轨道,并从2020年开始工作。该卫星仍在工作。
2D轨道图
3D轨道图
轨道高度分析图
轨道倾角分析图
轨道综合分析图
查看轨道综合分析图